Torna al catalogo

STARLINK-31410

AttivoComunicazioniVLEO
NORAD 59179·PAYLOAD·🇺🇸 United States

Lanciato Mar 10, 2024 da Cape Canaveral Space Force Station

Loading…

Prossimi Passaggi (prossime 24 ore)

TLE

AggiornatoSource: CelesTrak SupGP

Epoca: Sep 14, 2026, 13:38 UTC

1 59179C 24045B   26257.56854167  .00020644  00000+0  74774-3 0  2574
2 59179  42.9997 105.9962 0001365 263.3510 194.4175 15.27567294    10

Traccia STARLINK-31410 in tempo reale con AllMySat

Download on the App Store